VU2EXP-13 Weather Reports


time (UTC)temp
C
wind
direction
speed
KPH
gust
KPH
rain 1hr
cm
rain 24hr
cm
rain mn
cm
humidity
%
barometer
mb
20260504050707 35 0.0 0.0 0.00 0.00 0.00 46 990.4
20260504045206 35 0.0 0.0 0.00 0.00 0.00 47 990.4
20260504043707 34 0.0 0.0 0.00 0.00 0.00 48 990.4
20260504042206 34 0.0 0.0 0.00 0.00 0.00 49 990.3
20260504040706 33 0.0 0.0 0.00 0.00 0.00 50 990.1
20260504035206 33 0.0 0.0 0.00 0.00 0.00 51 990.0
20260504033706 32 0.0 0.0 0.00 0.00 0.00 53 990.3
20260504032205 32 0.0 0.0 0.00 0.00 0.00 54 990.2
20260504030705 32 0.0 0.0 0.00 0.00 0.00 55 990.1
20260504025205 31 0.0 0.0 0.00 0.00 0.00 56 990.0
20260504023705 31 0.0 0.0 0.00 0.00 0.00 57 989.8
20260504022205 31 0.0 0.0 0.00 0.00 0.00 58 989.6
20260504020705 31 0.0 0.0 0.00 0.00 0.00 59 989.4
20260504015205 31 0.0 0.0 0.00 0.00 0.00 59 989.2
20260504013704 31 0.0 0.0 0.00 0.00 0.00 59 989.0
20260504012204 31 0.0 0.0 0.00 0.00 0.00 59 988.9
20260504010704 31 0.0 0.0 0.00 0.00 0.00 60 988.7
20260504005204 31 0.0 0.0 0.00 0.00 0.00 59 988.6
20260504003704 31 0.0 0.0 0.00 0.00 0.00 59 988.3
20260504002204 31 0.0 0.0 0.00 0.00 0.00 59 988.2
20260504000703 31 0.0 0.0 0.00 0.00 0.00 59 988.0
20260503235203 31 0.0 0.0 0.00 0.00 0.00 59 987.7
20260503233703 31 0.0 0.0 0.00 0.00 0.00 59 987.6
20260503232204 31 0.0 0.0 0.00 0.00 0.00 59 987.5
20260503230703 31 0.0 0.0 0.00 0.00 0.00 58 987.4
20260503225203 31 0.0 0.0 0.00 0.00 0.00 58 987.4
20260503223703 31 0.0 0.0 0.00 0.00 0.00 58 987.3
20260503222203 31 0.0 0.0 0.00 0.00 0.00 58 987.3
20260503220703 31 0.0 0.0 0.00 0.00 0.00 58 987.2
20260503215203 31 0.0 0.0 0.00 0.00 0.00 57 987.2
20260503213702 31 0.0 0.0 0.00 0.00 0.00 57 987.2
20260503212202 31 0.0 0.0 0.00 0.00 0.00 57 987.3
20260503210702 31 0.0 0.0 0.00 0.00 0.00 57 987.4
20260503205202 32 0.0 0.0 0.00 0.00 0.00 56 987.5
20260503203702 32 0.0 0.0 0.00 0.00 0.00 55 987.8
20260503202202 32 0.0 0.0 0.00 0.00 0.00 55 988.0
20260503200702 32 0.0 0.0 0.00 0.00 0.00 55 988.1
20260503195202 32 0.0 0.0 0.00 0.00 0.00 54 987.9
20260503193701 32 0.0 0.0 0.00 0.00 0.00 54 988.0
20260503192201 32 0.0 0.0 0.00 0.00 0.00 53 988.1
20260503190702 32 0.0 0.0 0.00 0.00 0.00 53 988.2
20260503185201 33 0.0 0.0 0.00 0.00 0.00 52 988.2
20260503183701 33 0.0 0.0 0.00 0.00 0.00 52 988.3
20260503182201 33 0.0 0.0 0.00 0.00 0.00 52 988.4
20260503180701 33 0.0 0.0 0.00 0.00 0.00 52 988.4
20260503175201 33 0.0 0.0 0.00 0.00 0.00 52 988.4
20260503173701 33 0.0 0.0 0.00 0.00 0.00 52 988.4
20260503172201 33 0.0 0.0 0.00 0.00 0.00 51 988.5
20260503170701 33 0.0 0.0 0.00 0.00 0.00 50 988.4
20260503150701 35 0.0 0.0 0.00 0.00 0.00 42 987.2
20260503130700 37 0.0 0.0 0.00 0.00 0.00 33 985.9
20260503110658 41 0.0 0.0 0.00 0.00 0.00 26 985.6
20260503080657 41 0.0 0.0 0.00 0.00 0.00 24 987.7
20260503072156 40 0.0 0.0 0.00 0.00 0.00 25 988.5
20260503070656 38 0.0 0.0 0.00 0.00 0.00 29 988.6
20260503053655 36 0.0 0.0 0.00 0.00 0.00 38 989.6